カタログに戻る

CZ-6A DEB

運用中SSO
NORAD 55198·DEBRIS·🇨🇳 China

打ち上げ Nov 11, 2022 から Taiyuan Satellite Launch Center

Loading…

次のパス (今後24時間)

TLE

最新Source: Space-Track

元期: Sep 14, 2026, 10:27 UTC

1 55198U 22151VP  26257.43549131  .00004309  00000-0  84000-3 0  9992
2 55198  98.6129 319.0597 0090189  32.4646 328.2056 14.60979868197675

AllMySatでCZ-6A DEBをリアルタイム追跡

Download on the App Store